contact:dominique.lefevre@mio.osupytheas.fr, maurice.libes@osupytheas.fr, didier.mallarino@osupytheas.fr
Project:EMSO http://www.emso-fr.org/EMSO-France
Depth: 2436.0 m
Title:EMSO Ligure Ouest : Data MII capteur CSTAR
DateTime,Latitude,Longitude,Instrument_Serial,Reference_Counts,Signal_Counts,Corrected_Signal_raw_counts,Calculated_Beam_c_inverse_meters,Internal_thermistor_counts
DateTime,Latitude,Longitude,Instrument_Serial,Reference_Counts,Signal_Counts,Corrected_Signal_raw_counts,Calculated_Beam_c_inverse_meters,Internal_thermistor_counts
2019-08-08T00:00:18,42.805,6.029,CST-1368DR,8383,11730,15436,0.046,551
2019-08-08T00:03:20,42.805,6.029,CST-1368DR,8383,11729,15434,0.047,551
2019-08-08T00:06:21,42.805,6.029,CST-1368DR,8383,11726,15431,0.048,551
2019-08-08T00:09:23,42.805,6.029,CST-1368DR,8383,11729,15434,0.047,551
2019-08-08T00:12:25,42.805,6.029,CST-1368DR,8383,11726,15430,0.048,551
2019-08-08T00:15:27,42.805,6.029,CST-1368DR,8382,11725,15431,0.048,551
2019-08-08T00:18:28,42.805,6.029,CST-1368DR,8383,11726,15431,0.048,551
2019-08-08T00:21:30,42.805,6.029,CST-1368DR,8383,11725,15429,0.048,551
2019-08-08T00:24:32,42.805,6.029,CST-1368DR,8383,11726,15430,0.048,551
2019-08-08T00:27:34,42.805,6.029,CST-1368DR,8383,11727,15431,0.048,551
2019-08-08T00:30:36,42.805,6.029,CST-1368DR,8382,11726,15432,0.047,551
2019-08-08T00:33:38,42.805,6.029,CST-1368DR,8382,11728,15435,0.047,551
2019-08-08T00:36:40,42.805,6.029,CST-1368DR,8382,11728,15435,0.047,551
2019-08-08T00:39:42,42.805,6.029,CST-1368DR,8382,11727,15433,0.047,551
2019-08-08T00:42:44,42.805,6.029,CST-1368DR,8382,11729,15437,0.046,551
2019-08-08T00:45:45,42.805,6.029,CST-1368DR,8382,11728,15435,0.047,551
2019-08-08T00:48:47,42.805,6.029,CST-1368DR,8382,11726,15432,0.047,550
2019-08-08T00:51:49,42.805,6.029,CST-1368DR,8382,11728,15435,0.047,551
2019-08-08T00:54:51,42.805,6.029,CST-1368DR,8382,11727,15434,0.047,551
2019-08-08T00:57:53,42.805,6.029,CST-1368DR,8382,11725,15431,0.048,551
2019-08-08T01:00:55,42.805,6.029,CST-1368DR,8382,11728,15435,0.047,551
2019-08-08T01:03:57,42.805,6.029,CST-1368DR,8382,11727,15434,0.047,551
2019-08-08T01:06:58,42.805,6.029,CST-1368DR,8382,11728,15435,0.047,551
2019-08-08T01:10:00,42.805,6.029,CST-1368DR,8382,11726,15432,0.047,550
2019-08-08T01:13:02,42.805,6.029,CST-1368DR,8382,11726,15433,0.047,550
2019-08-08T01:16:04,42.805,6.029,CST-1368DR,8382,11727,15434,0.047,551
2019-08-08T01:19:06,42.805,6.029,CST-1368DR,8382,11726,15432,0.047,551
2019-08-08T01:22:08,42.805,6.029,CST-1368DR,8382,11727,15433,0.047,551
2019-08-08T01:25:09,42.805,6.029,CST-1368DR,8382,11725,15431,0.048,551
2019-08-08T01:28:11,42.805,6.029,CST-1368DR,8382,11726,15432,0.047,551
2019-08-08T01:31:13,42.805,6.029,CST-1368DR,8382,11727,15434,0.047,551
2019-08-08T01:34:15,42.805,6.029,CST-1368DR,8382,11726,15432,0.047,551
2019-08-08T01:37:17,42.805,6.029,CST-1368DR,8382,11726,15433,0.047,551
2019-08-08T01:40:19,42.805,6.029,CST-1368DR,8382,11728,15435,0.047,551
2019-08-08T01:43:21,42.805,6.029,CST-1368DR,8382,11727,15433,0.047,551
2019-08-08T01:46:22,42.805,6.029,CST-1368DR,8382,11727,15433,0.047,551
2019-08-08T01:49:24,42.805,6.029,CST-1368DR,8382,11726,15432,0.047,551
2019-08-08T01:52:26,42.805,6.029,CST-1368DR,8382,11729,15436,0.046,551
2019-08-08T01:55:28,42.805,6.029,CST-1368DR,8382,11727,15434,0.047,551
2019-08-08T01:58:30,42.805,6.029,CST-1368DR,8382,11726,15433,0.047,551
2019-08-08T02:01:32,42.805,6.029,CST-1368DR,8382,11726,15433,0.047,551
2019-08-08T02:04:34,42.805,6.029,CST-1368DR,8381,11727,15435,0.047,551
2019-08-08T02:07:36,42.805,6.029,CST-1368DR,8382,11727,15433,0.047,551
2019-08-08T02:10:37,42.805,6.029,CST-1368DR,8382,11728,15435,0.047,551
2019-08-08T02:13:39,42.805,6.029,CST-1368DR,8382,11727,15434,0.047,551
2019-08-08T02:16:41,42.805,6.029,CST-1368DR,8382,11727,15433,0.047,551
2019-08-08T02:19:43,42.805,6.029,CST-1368DR,8382,11726,15433,0.047,551
2019-08-08T02:22:45,42.805,6.029,CST-1368DR,8382,11728,15435,0.047,551
2019-08-08T02:25:47,42.805,6.029,CST-1368DR,8382,11728,15435,0.047,551
2019-08-08T02:28:49,42.805,6.029,CST-1368DR,8381,11726,15433,0.047,551
2019-08-08T02:31:50,42.805,6.029,CST-1368DR,8382,11727,15434,0.047,551
2019-08-08T02:34:52,42.805,6.029,CST-1368DR,8381,11727,15435,0.047,551
2019-08-08T02:37:54,42.805,6.029,CST-1368DR,8381,11725,15433,0.047,551
2019-08-08T02:40:56,42.805,6.029,CST-1368DR,8382,11727,15434,0.047,551
2019-08-08T02:43:58,42.805,6.029,CST-1368DR,8381,11727,15435,0.047,551
2019-08-08T02:47:00,42.805,6.029,CST-1368DR,8381,11726,15434,0.047,550
2019-08-08T02:50:02,42.805,6.029,CST-1368DR,8381,11726,15434,0.047,551
2019-08-08T02:53:03,42.805,6.029,CST-1368DR,8381,11727,15435,0.047,551
2019-08-08T02:56:05,42.805,6.029,CST-1368DR,8381,11727,15436,0.046,551
2019-08-08T02:59:07,42.805,6.029,CST-1368DR,8381,11725,15432,0.047,551
2019-08-08T03:02:09,42.805,6.029,CST-1368DR,8381,11726,15434,0.047,551
2019-08-08T03:05:11,42.805,6.029,CST-1368DR,8381,11726,15434,0.047,551
2019-08-08T03:08:13,42.805,6.029,CST-1368DR,8381,11726,15434,0.047,551
2019-08-08T03:11:14,42.805,6.029,CST-1368DR,8381,11727,15435,0.047,551
2019-08-08T03:14:16,42.805,6.029,CST-1368DR,8381,11724,15432,0.047,551
2019-08-08T03:17:18,42.805,6.029,CST-1368DR,8381,11727,15435,0.047,551
2019-08-08T03:20:20,42.805,6.029,CST-1368DR,8381,11727,15435,0.047,551
2019-08-08T03:23:21,42.805,6.029,CST-1368DR,8381,11725,15433,0.047,551
2019-08-08T03:26:23,42.805,6.029,CST-1368DR,8381,11724,15432,0.047,551
2019-08-08T03:29:25,42.805,6.029,CST-1368DR,8381,11726,15434,0.047,551
2019-08-08T03:32:27,42.805,6.029,CST-1368DR,8381,11717,15422,0.050,551
2019-08-08T03:35:29,42.805,6.029,CST-1368DR,8381,11727,15435,0.047,551
2019-08-08T03:38:30,42.805,6.029,CST-1368DR,8381,11726,15434,0.047,551
2019-08-08T03:41:32,42.805,6.029,CST-1368DR,8381,11726,15433,0.047,551
2019-08-08T03:44:34,42.805,6.029,CST-1368DR,8381,11726,15434,0.047,551
2019-08-08T03:47:36,42.805,6.029,CST-1368DR,8381,11726,15434,0.047,551
2019-08-08T03:50:37,42.805,6.029,CST-1368DR,8381,11727,15435,0.047,551
2019-08-08T03:53:39,42.805,6.029,CST-1368DR,8381,11724,15432,0.047,550
2019-08-08T03:56:41,42.805,6.029,CST-1368DR,8381,11724,15431,0.048,551
2019-08-08T03:59:43,42.805,6.029,CST-1368DR,8381,11722,15429,0.048,551
2019-08-08T04:02:45,42.805,6.029,CST-1368DR,8381,11724,15431,0.048,551
2019-08-08T04:05:46,42.805,6.029,CST-1368DR,8381,11725,15432,0.047,551
2019-08-08T04:08:48,42.805,6.029,CST-1368DR,8381,11723,15430,0.048,551
2019-08-08T04:11:50,42.805,6.029,CST-1368DR,8381,11725,15433,0.047,551
2019-08-08T04:14:52,42.805,6.029,CST-1368DR,8381,11723,15430,0.048,551
2019-08-08T04:17:54,42.805,6.029,CST-1368DR,8381,11719,15425,0.049,551
2019-08-08T04:20:56,42.805,6.029,CST-1368DR,8381,11722,15429,0.048,551
2019-08-08T04:23:57,42.805,6.029,CST-1368DR,8381,11723,15429,0.048,551
2019-08-08T04:26:59,42.805,6.029,CST-1368DR,8381,11724,15431,0.048,551
2019-08-08T04:30:01,42.805,6.029,CST-1368DR,8381,11720,15426,0.049,551
2019-08-08T04:33:03,42.805,6.029,CST-1368DR,8381,11722,15429,0.048,551
2019-08-08T04:36:04,42.805,6.029,CST-1368DR,8381,11724,15431,0.048,551
2019-08-08T04:39:06,42.805,6.029,CST-1368DR,8380,11720,15428,0.048,551
2019-08-08T04:42:08,42.805,6.029,CST-1368DR,8380,11720,15428,0.048,551
2019-08-08T04:45:10,42.805,6.029,CST-1368DR,8380,11720,15427,0.049,551
2019-08-08T04:48:11,42.805,6.029,CST-1368DR,8380,11721,15429,0.048,551
2019-08-08T04:51:13,42.805,6.029,CST-1368DR,8380,11723,15431,0.048,551
2019-08-08T04:54:15,42.805,6.029,CST-1368DR,8380,11723,15432,0.047,551
2019-08-08T04:57:17,42.805,6.029,CST-1368DR,8380,11717,15424,0.049,551
2019-08-08T05:00:19,42.805,6.029,CST-1368DR,8380,11723,15431,0.048,550
2019-08-08T05:03:20,42.805,6.029,CST-1368DR,8380,11723,15431,0.048,551
2019-08-08T05:06:22,42.805,6.029,CST-1368DR,8380,11724,15432,0.047,551
2019-08-08T05:09:24,42.805,6.029,CST-1368DR,8380,11723,15431,0.048,551
2019-08-08T05:12:26,42.805,6.029,CST-1368DR,8380,11721,15429,0.048,551
2019-08-08T05:15:28,42.805,6.029,CST-1368DR,8380,11720,15427,0.049,551
2019-08-08T05:18:29,42.805,6.029,CST-1368DR,8380,11722,15430,0.048,551
2019-08-08T05:21:31,42.805,6.029,CST-1368DR,8380,11722,15430,0.048,551
2019-08-08T05:24:33,42.805,6.029,CST-1368DR,8380,11722,15430,0.048,551
2019-08-08T05:27:36,42.805,6.029,CST-1368DR,8380,11723,15431,0.048,551
2019-08-08T05:30:37,42.805,6.029,CST-1368DR,8380,11722,15430,0.048,551
2019-08-08T05:33:39,42.805,6.029,CST-1368DR,8380,11723,15431,0.048,551
2019-08-08T05:36:41,42.805,6.029,CST-1368DR,8380,11722,15430,0.048,551
2019-08-08T05:39:43,42.805,6.029,CST-1368DR,8380,11722,15430,0.048,551
2019-08-08T05:42:44,42.805,6.029,CST-1368DR,8380,11720,15428,0.048,550
2019-08-08T05:45:46,42.805,6.029,CST-1368DR,8380,11722,15430,0.048,551
2019-08-08T05:48:48,42.805,6.029,CST-1368DR,8380,11723,15432,0.047,551
2019-08-08T05:51:50,42.805,6.029,CST-1368DR,8380,11720,15428,0.048,551
2019-08-08T05:54:52,42.805,6.029,CST-1368DR,8380,11720,15427,0.049,550
2019-08-08T05:57:53,42.805,6.029,CST-1368DR,8380,11722,15430,0.048,551
2019-08-08T06:00:55,42.805,6.029,CST-1368DR,8380,11722,15430,0.048,551
2019-08-08T06:03:57,42.805,6.029,CST-1368DR,8380,11724,15432,0.047,551
2019-08-08T06:06:59,42.805,6.029,CST-1368DR,8380,11723,15431,0.048,551
2019-08-08T06:10:00,42.805,6.029,CST-1368DR,8380,11723,15432,0.047,551
2019-08-08T06:13:02,42.805,6.029,CST-1368DR,8380,11723,15432,0.047,551
2019-08-08T06:16:04,42.805,6.029,CST-1368DR,8380,11723,15431,0.048,551
2019-08-08T06:19:06,42.805,6.029,CST-1368DR,8380,11723,15432,0.047,551
2019-08-08T06:22:08,42.805,6.029,CST-1368DR,8379,11722,15432,0.047,551
2019-08-08T06:25:10,42.805,6.029,CST-1368DR,8379,11721,15430,0.048,550
2019-08-08T06:28:12,42.805,6.029,CST-1368DR,8379,11722,15432,0.047,551
2019-08-08T06:31:13,42.805,6.029,CST-1368DR,8379,11723,15433,0.047,551
2019-08-08T06:34:15,42.805,6.029,CST-1368DR,8379,11722,15432,0.047,551
2019-08-08T06:37:17,42.805,6.029,CST-1368DR,8379,11723,15433,0.047,550
2019-08-08T06:40:19,42.805,6.029,CST-1368DR,8379,11723,15433,0.047,551
2019-08-08T06:43:20,42.805,6.029,CST-1368DR,8379,11721,15431,0.048,551
2019-08-08T06:46:22,42.805,6.029,CST-1368DR,8379,11723,15433,0.047,550
2019-08-08T06:49:24,42.805,6.029,CST-1368DR,8379,11723,15433,0.047,551
2019-08-08T06:52:26,42.805,6.029,CST-1368DR,8379,11722,15432,0.047,551
2019-08-08T06:55:27,42.805,6.029,CST-1368DR,8379,11722,15431,0.048,550
2019-08-08T06:58:29,42.805,6.029,CST-1368DR,8379,11722,15432,0.047,551
2019-08-08T07:01:31,42.805,6.029,CST-1368DR,8379,11722,15432,0.047,551
2019-08-08T07:04:33,42.805,6.029,CST-1368DR,8379,11721,15430,0.048,551
2019-08-08T07:07:34,42.805,6.029,CST-1368DR,8379,11722,15432,0.047,550
2019-08-08T07:10:36,42.805,6.029,CST-1368DR,8379,11720,15430,0.048,551
2019-08-08T07:13:38,42.805,6.029,CST-1368DR,8379,11722,15432,0.047,551
2019-08-08T07:16:40,42.805,6.029,CST-1368DR,8379,11721,15431,0.048,551
2019-08-08T07:19:42,42.805,6.029,CST-1368DR,8379,11723,15433,0.047,551
2019-08-08T07:22:43,42.805,6.029,CST-1368DR,8379,11723,15433,0.047,551
2019-08-08T07:25:45,42.805,6.029,CST-1368DR,8379,11721,15430,0.048,551
2019-08-08T07:28:47,42.805,6.029,CST-1368DR,8379,11719,15428,0.048,551
2019-08-08T07:31:49,42.805,6.029,CST-1368DR,8379,11722,15432,0.047,551
2019-08-08T07:34:51,42.805,6.029,CST-1368DR,8379,11722,15431,0.048,551
2019-08-08T07:37:52,42.805,6.029,CST-1368DR,8379,11722,15432,0.047,551
2019-08-08T07:40:54,42.805,6.029,CST-1368DR,8379,11723,15433,0.047,550
2019-08-08T07:43:56,42.805,6.029,CST-1368DR,8379,11721,15431,0.048,550
2019-08-08T07:46:58,42.805,6.029,CST-1368DR,8379,11723,15433,0.047,551
2019-08-08T07:49:59,42.805,6.029,CST-1368DR,8379,11722,15432,0.047,551
2019-08-08T07:53:01,42.805,6.029,CST-1368DR,8379,11720,15430,0.048,551
2019-08-08T07:56:03,42.805,6.029,CST-1368DR,8379,11722,15432,0.047,551
2019-08-08T07:59:05,42.805,6.029,CST-1368DR,8379,11720,15430,0.048,551
2019-08-08T08:02:07,42.805,6.029,CST-1368DR,8379,11722,15431,0.048,551
2019-08-08T08:05:08,42.805,6.029,CST-1368DR,8379,11721,15431,0.048,551
2019-08-08T08:08:10,42.805,6.029,CST-1368DR,8379,11723,15433,0.047,551
2019-08-08T08:11:12,42.805,6.029,CST-1368DR,8378,11721,15433,0.047,551
2019-08-08T08:14:14,42.805,6.029,CST-1368DR,8378,11722,15434,0.047,551
2019-08-08T08:17:15,42.805,6.029,CST-1368DR,8379,11722,15432,0.047,551
2019-08-08T08:20:17,42.805,6.029,CST-1368DR,8378,11721,15433,0.047,551
2019-08-08T08:23:19,42.805,6.029,CST-1368DR,8378,11712,15421,0.050,551
2019-08-08T08:26:21,42.805,6.029,CST-1368DR,8379,11723,15434,0.047,551
2019-08-08T08:29:23,42.805,6.029,CST-1368DR,8378,11723,15435,0.047,551
2019-08-08T08:32:25,42.805,6.029,CST-1368DR,8378,11719,15430,0.048,551
2019-08-08T08:35:26,42.805,6.029,CST-1368DR,8378,11717,15427,0.049,551
2019-08-08T08:38:28,42.805,6.029,CST-1368DR,8378,11721,15433,0.047,551
2019-08-08T08:41:30,42.805,6.029,CST-1368DR,8378,11719,15430,0.048,551
2019-08-08T08:44:32,42.805,6.029,CST-1368DR,8378,11723,15434,0.047,551
2019-08-08T08:47:33,42.805,6.029,CST-1368DR,8378,11721,15433,0.047,551
2019-08-08T08:50:35,42.805,6.029,CST-1368DR,8378,11720,15431,0.048,550
2019-08-08T08:53:37,42.805,6.029,CST-1368DR,8378,11722,15434,0.047,551
2019-08-08T08:56:39,42.805,6.029,CST-1368DR,8378,11723,15435,0.047,551
2019-08-08T08:59:41,42.805,6.029,CST-1368DR,8378,11722,15434,0.047,551
2019-08-08T09:02:43,42.805,6.029,CST-1368DR,8378,11721,15433,0.047,551
2019-08-08T09:05:44,42.805,6.029,CST-1368DR,8378,11722,15434,0.047,550
2019-08-08T09:08:46,42.805,6.029,CST-1368DR,8378,11723,15434,0.047,551
2019-08-08T09:11:48,42.805,6.029,CST-1368DR,8378,11722,15434,0.047,551
2019-08-08T09:14:50,42.805,6.029,CST-1368DR,8378,11723,15435,0.047,550
2019-08-08T09:17:52,42.805,6.029,CST-1368DR,8378,11723,15434,0.047,550
2019-08-08T09:20:53,42.805,6.029,CST-1368DR,8378,11721,15432,0.047,551
2019-08-08T09:23:55,42.805,6.029,CST-1368DR,8378,11720,15432,0.047,551
2019-08-08T09:26:57,42.805,6.029,CST-1368DR,8378,11722,15434,0.047,551
2019-08-08T09:29:59,42.805,6.029,CST-1368DR,8378,11723,15435,0.047,551
2019-08-08T09:33:01,42.805,6.029,CST-1368DR,8378,11722,15434,0.047,551
2019-08-08T09:36:02,42.805,6.029,CST-1368DR,8378,11721,15432,0.047,551
2019-08-08T09:39:04,42.805,6.029,CST-1368DR,8378,11722,15434,0.047,551
2019-08-08T09:42:06,42.805,6.029,CST-1368DR,8378,11722,15434,0.047,551
2019-08-08T09:45:08,42.805,6.029,CST-1368DR,8378,11723,15434,0.047,551
2019-08-08T09:48:10,42.805,6.029,CST-1368DR,8378,11721,15433,0.047,551
2019-08-08T09:51:12,42.805,6.029,CST-1368DR,8378,11721,15433,0.047,551
2019-08-08T09:54:13,42.805,6.029,CST-1368DR,8378,11723,15435,0.047,551
2019-08-08T09:57:15,42.805,6.029,CST-1368DR,8378,11723,15434,0.047,551
2019-08-08T10:00:17,42.805,6.029,CST-1368DR,8378,11722,15434,0.047,551
2019-08-08T10:03:19,42.805,6.029,CST-1368DR,8378,11723,15435,0.047,550
2019-08-08T10:06:20,42.805,6.029,CST-1368DR,8378,11721,15433,0.047,550
2019-08-08T10:09:22,42.805,6.029,CST-1368DR,8378,11723,15434,0.047,551
2019-08-08T10:12:24,42.805,6.029,CST-1368DR,8378,11723,15434,0.047,551
2019-08-08T10:15:26,42.805,6.029,CST-1368DR,8378,11722,15434,0.047,551
2019-08-08T10:18:28,42.805,6.029,CST-1368DR,8378,11721,15433,0.047,551
2019-08-08T10:21:30,42.805,6.029,CST-1368DR,8378,11722,15433,0.047,551
2019-08-08T10:24:31,42.805,6.029,CST-1368DR,8377,11720,15433,0.047,550
2019-08-08T10:27:33,42.805,6.029,CST-1368DR,8378,11723,15434,0.047,551
2019-08-08T10:30:35,42.805,6.029,CST-1368DR,8378,11723,15435,0.047,550
2019-08-08T10:33:37,42.805,6.029,CST-1368DR,8378,11723,15434,0.047,551
2019-08-08T10:36:39,42.805,6.029,CST-1368DR,8377,11721,15434,0.047,551
2019-08-08T10:39:41,42.805,6.029,CST-1368DR,8377,11720,15433,0.047,551
2019-08-08T10:42:43,42.805,6.029,CST-1368DR,8377,11719,15432,0.047,551
2019-08-08T10:45:44,42.805,6.029,CST-1368DR,8377,11722,15436,0.046,550
2019-08-08T10:48:46,42.805,6.029,CST-1368DR,8377,11720,15432,0.047,551
2019-08-08T10:51:48,42.805,6.029,CST-1368DR,8377,11721,15434,0.047,551
2019-08-08T10:54:50,42.805,6.029,CST-1368DR,8377,11719,15431,0.048,551
2019-08-08T10:57:52,42.805,6.029,CST-1368DR,8377,11722,15435,0.047,551
2019-08-08T11:00:53,42.805,6.029,CST-1368DR,8377,11721,15434,0.047,551
2019-08-08T11:03:55,42.805,6.029,CST-1368DR,8377,11720,15433,0.047,551
2019-08-08T11:06:57,42.805,6.029,CST-1368DR,8377,11722,15435,0.047,551
2019-08-08T11:09:59,42.805,6.029,CST-1368DR,8377,11721,15435,0.047,551
2019-08-08T11:13:01,42.805,6.029,CST-1368DR,8377,11722,15435,0.047,551
2019-08-08T11:16:03,42.805,6.029,CST-1368DR,8377,11722,15435,0.047,551
2019-08-08T11:19:04,42.805,6.029,CST-1368DR,8377,11720,15433,0.047,551
2019-08-08T11:22:06,42.805,6.029,CST-1368DR,8377,11721,15435,0.047,551
2019-08-08T11:25:08,42.805,6.029,CST-1368DR,8377,11720,15433,0.047,551
2019-08-08T11:28:10,42.805,6.029,CST-1368DR,8377,11719,15432,0.047,550
2019-08-08T11:31:12,42.805,6.029,CST-1368DR,8377,11719,15431,0.048,551
2019-08-08T11:34:13,42.805,6.029,CST-1368DR,8377,11721,15435,0.047,551
2019-08-08T11:37:15,42.805,6.029,CST-1368DR,8377,11719,15431,0.048,551
2019-08-08T11:40:17,42.805,6.029,CST-1368DR,8377,11721,15434,0.047,551
2019-08-08T11:43:19,42.805,6.029,CST-1368DR,8377,11721,15435,0.047,551
2019-08-08T11:46:21,42.805,6.029,CST-1368DR,8377,11721,15435,0.047,551
2019-08-08T11:49:23,42.805,6.029,CST-1368DR,8377,11721,15434,0.047,551
2019-08-08T11:52:25,42.805,6.029,CST-1368DR,8377,11720,15432,0.047,551
2019-08-08T11:55:26,42.805,6.029,CST-1368DR,8377,11720,15433,0.047,551
2019-08-08T11:58:28,42.805,6.029,CST-1368DR,8377,11721,15435,0.047,551
2019-08-08T12:01:30,42.805,6.029,CST-1368DR,8377,11720,15433,0.047,551
2019-08-08T12:04:32,42.805,6.029,CST-1368DR,8377,11720,15432,0.047,551
2019-08-08T12:07:34,42.805,6.029,CST-1368DR,8377,11721,15434,0.047,551
2019-08-08T12:10:35,42.805,6.029,CST-1368DR,8377,11721,15434,0.047,551
2019-08-08T12:13:37,42.805,6.029,CST-1368DR,8377,11720,15433,0.047,550
2019-08-08T12:16:39,42.805,6.029,CST-1368DR,8377,11719,15431,0.048,551
2019-08-08T12:19:41,42.805,6.029,CST-1368DR,8377,11722,15435,0.047,551
2019-08-08T12:22:42,42.805,6.029,CST-1368DR,8377,11721,15435,0.047,551
2019-08-08T12:25:44,42.805,6.029,CST-1368DR,8377,11717,15428,0.048,551
2019-08-08T12:28:45,42.805,6.029,CST-1368DR,8377,11718,15431,0.048,551
2019-08-08T12:31:47,42.805,6.029,CST-1368DR,8377,11720,15433,0.047,551
2019-08-08T12:34:49,42.805,6.029,CST-1368DR,8377,11720,15433,0.047,551
2019-08-08T12:37:50,42.805,6.029,CST-1368DR,8377,11720,15433,0.047,551
2019-08-08T12:40:52,42.805,6.029,CST-1368DR,8377,11720,15433,0.047,551
2019-08-08T12:43:54,42.805,6.029,CST-1368DR,8377,11719,15431,0.048,551
2019-08-08T12:46:55,42.805,6.029,CST-1368DR,8376,11720,15434,0.047,551
2019-08-08T12:49:57,42.805,6.029,CST-1368DR,8376,11720,15435,0.047,551
2019-08-08T12:52:59,42.805,6.029,CST-1368DR,8376,11721,15435,0.047,551
2019-08-08T12:56:00,42.805,6.029,CST-1368DR,8376,11718,15432,0.047,551
2019-08-08T12:59:02,42.805,6.029,CST-1368DR,8376,11720,15435,0.047,551
2019-08-08T13:02:04,42.805,6.029,CST-1368DR,8376,11720,15435,0.047,551
2019-08-08T13:05:05,42.805,6.029,CST-1368DR,8376,11720,15435,0.047,551
2019-08-08T13:08:07,42.805,6.029,CST-1368DR,8376,11719,15433,0.047,551
2019-08-08T13:11:08,42.805,6.029,CST-1368DR,8376,11718,15432,0.047,551
2019-08-08T13:14:10,42.805,6.029,CST-1368DR,8376,11718,15432,0.047,551
2019-08-08T13:17:12,42.805,6.029,CST-1368DR,8376,11718,15432,0.047,551
2019-08-08T13:20:13,42.805,6.029,CST-1368DR,8376,11720,15435,0.047,551
2019-08-08T13:23:15,42.805,6.029,CST-1368DR,8376,11720,15435,0.047,551
2019-08-08T13:26:17,42.805,6.029,CST-1368DR,8376,11719,15434,0.047,550
2019-08-08T13:29:19,42.805,6.029,CST-1368DR,8376,11720,15435,0.047,551
2019-08-08T13:32:20,42.805,6.029,CST-1368DR,8376,11719,15433,0.047,551
2019-08-08T13:35:22,42.805,6.029,CST-1368DR,8376,11720,15434,0.047,551
2019-08-08T13:38:23,42.805,6.029,CST-1368DR,8376,11716,15430,0.048,551
2019-08-08T13:41:25,42.805,6.029,CST-1368DR,8376,11718,15432,0.047,551
2019-08-08T13:44:27,42.805,6.029,CST-1368DR,8376,11719,15434,0.047,551
2019-08-08T13:47:28,42.805,6.029,CST-1368DR,8376,11718,15432,0.047,551
2019-08-08T13:50:30,42.805,6.029,CST-1368DR,8376,11717,15431,0.048,550
2019-08-08T13:53:32,42.805,6.029,CST-1368DR,8376,11720,15434,0.047,551
2019-08-08T13:56:33,42.805,6.029,CST-1368DR,8376,11717,15431,0.048,551
2019-08-08T13:59:35,42.805,6.029,CST-1368DR,8376,11720,15435,0.047,551
2019-08-08T14:02:37,42.805,6.029,CST-1368DR,8376,11719,15434,0.047,551
2019-08-08T14:05:38,42.805,6.029,CST-1368DR,8376,11719,15433,0.047,551
2019-08-08T14:08:40,42.805,6.029,CST-1368DR,8376,11718,15432,0.047,550
2019-08-08T14:11:42,42.805,6.029,CST-1368DR,8376,11717,15430,0.048,551
2019-08-08T14:14:43,42.805,6.029,CST-1368DR,8376,11719,15433,0.047,551
2019-08-08T14:17:45,42.805,6.029,CST-1368DR,8376,11718,15432,0.047,551
2019-08-08T14:20:47,42.805,6.029,CST-1368DR,8376,11718,15431,0.048,551
2019-08-08T14:23:48,42.805,6.029,CST-1368DR,8376,11720,15434,0.047,551
2019-08-08T14:26:50,42.805,6.029,CST-1368DR,8376,11719,15433,0.047,551
2019-08-08T14:29:52,42.805,6.029,CST-1368DR,8376,11720,15434,0.047,551
2019-08-08T14:32:53,42.805,6.029,CST-1368DR,8376,11719,15433,0.047,551
2019-08-08T14:35:55,42.805,6.029,CST-1368DR,8376,11718,15432,0.047,551
2019-08-08T14:38:57,42.805,6.029,CST-1368DR,8376,11717,15430,0.048,550
2019-08-08T14:41:58,42.805,6.029,CST-1368DR,8376,11716,15429,0.048,551
2019-08-08T14:45:00,42.805,6.029,CST-1368DR,8376,11720,15434,0.047,551
2019-08-08T14:48:02,42.805,6.029,CST-1368DR,8376,11718,15432,0.047,551
2019-08-08T14:51:03,42.805,6.029,CST-1368DR,8376,11719,15433,0.047,551
2019-08-08T14:54:05,42.805,6.029,CST-1368DR,8375,11719,15435,0.047,551
2019-08-08T14:57:07,42.805,6.029,CST-1368DR,8376,11719,15433,0.047,551
2019-08-08T15:00:08,42.805,6.029,CST-1368DR,8375,11718,15434,0.047,551
2019-08-08T15:03:10,42.805,6.029,CST-1368DR,8376,11719,15433,0.047,551
2019-08-08T15:06:12,42.805,6.029,CST-1368DR,8376,11718,15432,0.047,551
2019-08-08T15:09:13,42.805,6.029,CST-1368DR,8376,11719,15434,0.047,551
2019-08-08T15:12:15,42.805,6.029,CST-1368DR,8376,11719,15433,0.047,551
2019-08-08T15:15:17,42.805,6.029,CST-1368DR,8375,11719,15434,0.047,551
2019-08-08T15:18:18,42.805,6.029,CST-1368DR,8375,11680,15384,0.060,551
2019-08-08T15:21:20,42.805,6.029,CST-1368DR,8375,11719,15435,0.047,551
2019-08-08T15:24:21,42.805,6.029,CST-1368DR,8375,11717,15432,0.047,551
2019-08-08T15:27:23,42.805,6.029,CST-1368DR,8375,11717,15432,0.047,551
2019-08-08T15:30:25,42.805,6.029,CST-1368DR,8375,11718,15434,0.047,551
2019-08-08T15:33:27,42.805,6.029,CST-1368DR,8375,11716,15431,0.048,551
2019-08-08T15:36:28,42.805,6.029,CST-1368DR,8375,11718,15434,0.047,551
2019-08-08T15:39:30,42.805,6.029,CST-1368DR,8375,11717,15432,0.047,551
2019-08-08T15:42:32,42.805,6.029,CST-1368DR,8375,11718,15433,0.047,551
2019-08-08T15:45:33,42.805,6.029,CST-1368DR,8375,11719,15434,0.047,551
2019-08-08T15:48:35,42.805,6.029,CST-1368DR,8375,11719,15435,0.047,551
2019-08-08T15:51:36,42.805,6.029,CST-1368DR,8375,11718,15434,0.047,551
2019-08-08T15:54:38,42.805,6.029,CST-1368DR,8375,11719,15434,0.047,551
2019-08-08T15:57:40,42.805,6.029,CST-1368DR,8375,11719,15435,0.047,551
2019-08-08T16:00:41,42.805,6.029,CST-1368DR,8375,11718,15434,0.047,550
2019-08-08T16:03:43,42.805,6.029,CST-1368DR,8375,11717,15432,0.047,551
2019-08-08T16:06:45,42.805,6.029,CST-1368DR,8375,11716,15431,0.048,551
2019-08-08T16:09:46,42.805,6.029,CST-1368DR,8375,11718,15433,0.047,551
2019-08-08T16:12:48,42.805,6.029,CST-1368DR,8375,11717,15432,0.047,551
2019-08-08T16:15:50,42.805,6.029,CST-1368DR,8375,11715,15430,0.048,551
2019-08-08T16:18:51,42.805,6.029,CST-1368DR,8375,11718,15434,0.047,550
2019-08-08T16:21:53,42.805,6.029,CST-1368DR,8375,11717,15432,0.047,551
2019-08-08T16:24:55,42.805,6.029,CST-1368DR,8375,11718,15434,0.047,550
2019-08-08T16:27:56,42.805,6.029,CST-1368DR,8375,11714,15428,0.048,551
2019-08-08T16:30:58,42.805,6.029,CST-1368DR,8375,11718,15433,0.047,551
2019-08-08T16:33:59,42.805,6.029,CST-1368DR,8375,11718,15434,0.047,551
2019-08-08T16:37:01,42.805,6.029,CST-1368DR,8375,11716,15431,0.048,551